Regional Weather Roundup
Issued by NWS Kansas City/Pleasant Hill, MO

Home | Current Version | Previous Version | Graphics & Text | Print | Product List | Glossary Off
Versions: 1 2 3 4 5 6 7 8 9 10 11 12 13 14 15 16 17 18 19 20 21 22 23 24 25 26 27

000
ASUS43 KEAX 210910
RWREAX

WEATHER ROUNDUP FOR EASTERN KANSAS AND NORTHWEST MISSOURI
NATIONAL WEATHER SERVICE KANSAS CITY/PLEASANT HILL MO
300 AM CST WED FEB 21 2018

KSZ040-057-103>105-MOZ028-029-037-043-211000-
...KANSAS CITY METROPOLITAN AREA...

CITY           SKY/WX    TMP DP  RH WIND       PRES   REMARKS
K.C. INTL      CLOUDY    16  12  84 N12       30.45R WCI   3
K.C. DOWNTOWN  PTCLDY    20  13  74 N13       30.45R WCI   7
LEES SUMMIT    PTCLDY    19  16  88 N16       30.42R WCI   4
OLATHE - IXD   PTCLDY    17  14  88 N13       30.44R WCI   4
OLATHE - OJC   PTCLDY    17  14  88 N13G21    30.41R WCI   4
LAWRENCE       CLOUDY    17  11  77 NW13      30.47R WCI   4

$$

MOZ001>008-011>017-020>025-030>033-038>040-044>046-053-054-211000-
...NORTHERN AND CENTRAL MISSOURI...

CITY           SKY/WX    TMP DP  RH WIND       PRES   REMARKS
ST. JOSEPH     CLOUDY    15  12  88 N12       30.50R WCI   2
MOSBY          MOSUNNY   19  16  86 N8        30.47R WCI   9
WARRENSBURG    CLOUDY    21  18  86 N6        30.42R WCI  14
WHITEMAN AFB   CLOUDY    21  16  80 N3        30.35S
CLINTON        CLOUDY    23  19  86 CALM      30.38F
SEDALIA        CLOUDY    24  20  84 N15       30.40S WCI  11
WARSAW         NOT AVBL
CHILLICOTHE      N/A     20  15  81 N9        30.46R WCI   9
KIRKSVILLE     PTCLDY    20  17  88 N12       30.43R WCI   8

$$

MOZ041-047>049-056>058-063>065-088>090-097-211000-
...EASTERN AND SOUTHERN MISSOURI...

CITY           SKY/WX    TMP DP  RH WIND       PRES   REMARKS
ST. LOUIS INTL LGTSLEET  31  29  92 NW17G28   30.34R WCI  19
SPIRIT OF STL  CLOUDY    32  29  88 N9G21     30.33S WCI  24
COLUMBIA       CLOUDY    26  23  88 N12       30.39R WCI  16
JEFFERSON CITY CLOUDY    27  22  81 NW10      30.41R WCI  17
ROLLA          CLOUDY    28  27  96 N15       30.35R WCI  16
OSAGE BEACH    CLOUDY    26  24  92 CALM      30.38R
SPRINGFIELD    CLOUDY    26  25  96 N10       30.30R WCI  16
BRANSON        CLOUDY    30  30 100 NE7       30.29R WCI  23
JOPLIN         CLOUDY    25  23  92 N12       30.38R WCI  14
WEST PLAINS    MIX PCPN  34  32  92 NW12G23   30.29R WCI  25

$$

IAZ060-094-KSZ022-034>040-054-083-096-NEZ052-066-093-211000-
...KANSAS...SOUTHEAST NEBRASKA AND IOWA...

CITY           SKY/WX    TMP DP  RH WIND       PRES   REMARKS
TOPEKA         PTCLDY    16  11  80 N13       30.49R WCI   2
MANHATTAN      CLOUDY    16   8  71 N6        30.52R WCI   7
EMPORIA        CLOUDY    16  11  80 N13G20    30.46R WCI   2
WICHITA        PTCLDY    18  11  74 N14       30.42F WCI   4
OMAHA          CLEAR     10   4  76 N9        30.53R WCI  -3
LINCOLN        CLEAR      9   2  73 N6        30.54R WCI  -1
FALLS CITY     CLOUDY    13   6  74 N9        30.50R WCI   1
LAMONI         MOCLDY    14   9  80 N10       30.45R WCI   1
DES MOINES     PTCLDY    14   8  77 N13       30.48R WCI   0

$$





USA.gov is the U.S. government's official web portal to all federal, state and local government web resources and services.